Location: Waco, TX
(31.5480°N, 97.1670°W)
Time: 02:06:40
(UTC-05:00)

ISS - All Passes

Search period start: 20 April 2018 00:00
Search period end: 30 April 2018 00:00
Orbit: 403 x 406 km, 51.6° (Epoch: 20 April)

Date Brightness Start Highest point End Pass type
(mag) Time Alt. Az. Time Alt. Az. Time Alt. Az.
20 Apr - 09:10:04 10° S 09:12:52 27° SE 09:15:41 10° ENE daylight
20 Apr - 10:46:47 10° W 10:49:20 20° NW 10:51:52 10° NNE daylight
20 Apr - 17:17:46 10° NNW 17:20:50 35° NE 17:23:52 10° ESE daylight
20 Apr - 18:55:13 10° W 18:57:02 14° SW 18:58:51 10° SSW daylight
21 Apr - 08:19:22 10° SSE 08:20:48 12° SE 08:22:15 10° E daylight
21 Apr - 09:53:53 10° WSW 09:56:58 39° NW 10:00:05 10° NNE daylight
21 Apr - 16:26:02 10° NNW 16:28:28 19° NE 16:30:52 10° E daylight
21 Apr - 18:02:01 10° WNW 18:04:58 30° SW 18:07:53 10° SSE daylight
22 Apr - 09:01:28 10° SW 09:04:42 88° SE 09:07:59 10° NE daylight
22 Apr - 15:34:58 10° NNE 15:35:59 11° NNE 15:36:59 10° NE daylight
22 Apr - 17:09:32 10° NW 17:12:48 74° SW 17:16:03 10° SE daylight
23 Apr - 08:09:31 10° SSW 08:12:31 36° SE 08:15:33 10° ENE daylight
23 Apr - 09:46:52 10° WNW 09:49:05 17° NW 09:51:18 10° N daylight
23 Apr - 16:17:21 10° NNW 16:20:32 46° NE 16:23:41 10° ESE daylight
23 Apr - 17:55:53 10° WSW 17:56:38 11° SW 17:57:24 10° SW daylight
24 Apr - 07:18:16 10° SSE 07:20:23 16° SE 07:22:32 10° E daylight
24 Apr - 08:53:43 10° WSW 08:56:40 30° NW 08:59:36 10° NNE daylight
24 Apr - 15:25:28 10° NNW 15:28:10 23° NE 15:30:51 10° E daylight
24 Apr - 17:01:53 10° WNW 17:04:33 23° SW 17:07:13 10° S daylight
25 Apr - 08:01:05 10° SW 08:04:19 68° NW 08:07:35 10° NE daylight
25 Apr - 14:34:00 10° N 14:35:41 13° NNE 14:37:21 10° ENE daylight
25 Apr - 16:09:10 10° NW 16:12:23 53° SW 16:15:34 10° SSE daylight
26 Apr - 07:08:55 10° SSW 07:12:04 49° SE 07:15:14 10° NE daylight
26 Apr - 08:46:56 10° WNW 08:48:44 14° NNW 08:50:32 10° N daylight
26 Apr - 15:16:52 10° NW 15:20:06 62° NE 15:23:21 10° SE daylight
27 Apr - 06:17:20 10° S 06:19:53 21° SE 06:22:26 10° ENE visible
27 Apr - 07:53:30 10° W 07:56:14 24° NW 07:58:59 10° NNE daylight
27 Apr - 14:24:49 10° NNW 14:27:44 29° NE 14:30:38 10° ESE daylight
27 Apr - 16:01:45 10° W 16:04:02 18° SW 16:06:18 10° S daylight
28 Apr - 07:00:40 10° WSW 07:03:50 50° NW 07:07:01 10° NE daylight
28 Apr - 13:33:08 10° N 13:35:15 16° NE 13:37:22 10° ENE daylight
28 Apr - 15:08:45 10° WNW 15:11:50 39° SW 15:14:54 10° SSE daylight
29 Apr - 06:08:17 10° SW 06:11:31 67° SE 06:14:45 10° NE visible
29 Apr - 07:47:04 10° NW 07:48:17 12° NNW 07:49:30 10° N daylight
29 Apr - 14:16:17 10° NW 14:19:33 85° NE 14:22:49 10° SE daylight
